N0MR Weather Reports


time (UTC)temp
F
wind
direction
speed
knots
gust
knots
rain 1hr
in
rain 24hr
in
rain mn
in
humidity
%
barometer
mb
20260507200127 44 351 4.3 9.6 0.00 0.00 0.00 67 1009.9
20260507194127 44 355 4.3 7.8 0.00 0.00 0.00 64 1009.8
20260507193128 44 224 1.7 7.0 0.00 0.00 0.00 62 1010.0
20260507192128 44 224 1.7 7.0 0.00 0.00 0.00 62 1010.0
20260507185127 43 327 6.1 8.7 0.00 0.00 0.00 66 1010.2
20260507184127 43 327 6.1 8.7 0.00 0.00 0.00 66 1010.2
20260507183128 46 244 0.9 9.6 0.00 0.00 0.00 53 1010.0
20260507182127 45 256 3.5 9.6 0.00 0.00 0.00 53 1010.0
20260507180128 47 230 4.3 11.3 0.00 0.00 0.00 44 1010.0
20260507175127 47 230 4.3 11.3 0.00 0.00 0.00 44 1010.0
20260507174128 46 12 3.5 12.2 0.00 0.00 0.00 48 1010.3
20260507173128 46 12 3.5 12.2 0.00 0.00 0.00 48 1010.3
20260507172129 43 296 3.5 13.0 0.00 0.00 0.00 51 1010.7
20260507170128 45 302 0.9 12.2 0.00 0.00 0.00 46 1010.6
20260507165128 45 302 0.9 12.2 0.00 0.00 0.00 46 1010.6
20260507164128 46 342 3.5 7.0 0.00 0.00 0.00 46 1010.7
20260507163128 46 342 3.5 7.0 0.00 0.00 0.00 46 1010.7
20260507162128 42 250 3.5 12.2 0.00 0.00 0.00 59 1011.0
20260507161129 42 250 3.5 12.2 0.00 0.00 0.00 59 1011.0
20260507160129 45 240 6.1 9.6 0.00 0.00 0.00 47 1010.8
20260507152129 44 343 7.0 12.2 0.00 0.00 0.00 51 1011.0
20260507151129 43 235 1.7 10.4 0.00 0.00 0.00 53 1011.2
20260507150128 43 235 1.7 10.4 0.00 0.00 0.00 53 1011.2
20260507145128 42 233 4.3 9.6 0.00 0.00 0.00 54 1011.2
20260507144129 42 233 4.3 9.6 0.00 0.00 0.00 54 1011.2
20260507143129 42 355 2.6 8.7 0.00 0.00 0.00 57 1011.3
20260507142129 42 355 2.6 8.7 0.00 0.00 0.00 57 1011.3
20260507135128 39 282 1.7 7.0 0.00 0.00 0.00 64 1011.6
20260507134128 39 282 1.7 7.0 0.00 0.00 0.00 64 1011.6
20260507133129 37 302 1.7 7.0 0.00 0.00 0.00 68 1011.8
20260507132130 37 302 1.7 7.0 0.00 0.00 0.00 68 1011.8
20260507131130 35 355 1.7 9.6 0.00 0.00 0.00 72 1011.8
20260507130129 35 355 1.7 9.6 0.00 0.00 0.00 72 1011.8
20260507125129 34 61 1.7 7.0 0.00 0.00 0.00 75 1011.9
20260507124130 34 61 1.7 7.0 0.00 0.00 0.00 75 1011.9
20260507123129 32 236 0.9 4.3 0.00 0.00 0.00 79 1011.9
20260507122130 32 236 0.9 4.3 0.00 0.00 0.00 79 1011.9
20260507121130 31 239 0.0 4.3 0.00 0.00 0.00 81 1012.0
20260507120129 30 258 1.7 0.9 0.00 0.00 0.00 83 1011.9
20260507115131 30 258 1.7 0.9 0.00 0.00 0.00 83 1011.9
20260507114131 29 290 0.0 0.0 0.00 0.00 0.00 83 1011.8
20260507112130 29 290 0.0 1.7 0.00 0.00 0.00 83 1011.8
20260507111129 29 290 0.0 1.7 0.00 0.00 0.00 83 1011.8
20260507110129 29 290 0.0 0.9 0.00 0.00 0.00 83 1011.9
20260507105130 29 290 0.0 0.9 0.00 0.00 0.00 83 1011.9
20260507104130 29 290 0.0 0.0 0.00 0.00 0.00 83 1011.9
20260507103129 29 290 0.0 0.0 0.00 0.00 0.00 83 1011.9
20260507102130 29 290 0.0 0.0 0.00 0.00 0.00 83 1012.0
20260507101129 29 290 0.0 0.0 0.00 0.00 0.00 83 1012.0
20260507100129 30 290 0.0 0.0 0.00 0.00 0.00 82 1012.0
20260507095130 30 290 0.0 0.0 0.00 0.00 0.00 82 1012.0
20260507094130 30 290 0.0 0.9 0.00 0.00 0.00 82 1012.0
20260507093131 30 290 0.0 0.9 0.00 0.00 0.00 82 1012.0
20260507092131 30 290 0.0 0.9 0.00 0.00 0.00 81 1012.0
20260507091131 30 290 0.0 0.9 0.00 0.00 0.00 81 1012.0
20260507090131 31 290 0.0 0.9 0.00 0.00 0.00 80 1012.1
20260507085134 31 290 0.0 0.0 0.00 0.00 0.00 79 1012.2
20260507084132 31 290 0.0 0.0 0.00 0.00 0.00 79 1012.2
20260507083131 32 290 0.0 0.9 0.00 0.00 0.00 77 1012.3
20260507082131 32 290 0.0 0.9 0.00 0.00 0.00 77 1012.3
20260507081133 33 290 0.0 0.9 0.00 0.00 0.00 76 1012.3
20260507080133 33 290 0.0 0.9 0.00 0.00 0.00 76 1012.3
20260507075132 34 290 0.0 0.9 0.00 0.00 0.00 75 1012.3
20260507074130 34 290 0.0 0.9 0.00 0.00 0.00 75 1012.3
20260507073132 34 290 0.0 1.7 0.00 0.00 0.00 76 1012.4
20260507072131 34 290 0.0 1.7 0.00 0.00 0.00 76 1012.4
20260507071130 34 290 0.0 1.7 0.00 0.00 0.00 76 1012.6
20260507070131 34 290 0.0 1.7 0.00 0.00 0.00 76 1012.6
20260507065130 34 290 0.0 1.7 0.00 0.00 0.00 76 1012.7
20260507064130 34 290 0.0 1.7 0.00 0.00 0.00 76 1012.7
20260507063131 34 290 1.7 3.5 0.00 0.00 0.00 76 1012.9
20260507062131 34 290 1.7 3.5 0.00 0.00 0.00 76 1012.9
20260507061131 34 285 1.7 3.5 0.00 0.00 0.00 75 1013.1
20260507060132 34 285 1.7 3.5 0.00 0.00 0.00 75 1013.1
20260507055132 35 304 0.0 5.2 0.00 0.00 0.00 74 1013.2
20260507054133 35 302 0.9 3.5 0.00 0.00 0.00 74 1013.3
20260507053131 35 302 0.9 3.5 0.00 0.00 0.00 74 1013.3
20260507052131 35 302 0.0 3.5 0.00 0.00 0.00 74 1013.4
20260507051131 35 302 0.0 3.5 0.00 0.00 0.00 74 1013.4
20260507050131 35 277 1.7 1.7 0.00 0.00 0.00 73 1013.5
20260507045133 35 277 1.7 1.7 0.00 0.00 0.00 73 1013.5
20260507044131 35 287 0.0 0.9 0.00 0.00 0.00 73 1013.6
20260507043131 35 287 0.0 0.9 0.00 0.00 0.00 73 1013.6
20260507042132 35 254 0.0 3.5 0.00 0.00 0.00 72 1013.7
20260507041133 35 254 0.0 3.5 0.00 0.00 0.00 72 1013.7
20260507040132 35 270 0.0 1.7 0.00 0.00 0.00 72 1013.9
20260507035132 35 270 0.0 1.7 0.00 0.00 0.00 72 1013.9
20260507034133 35 269 0.9 1.7 0.00 0.00 0.00 71 1014.0
20260507033132 35 269 0.9 1.7 0.00 0.00 0.00 71 1014.0
20260507032132 36 273 0.9 3.5 0.00 0.00 0.00 70 1014.1
20260507031131 36 273 0.9 3.5 0.00 0.00 0.00 70 1014.1
20260507030132 36 273 0.0 4.3 0.00 0.00 0.00 69 1014.1
20260507025133 36 273 0.0 4.3 0.00 0.00 0.00 69 1014.1
20260507024133 36 257 0.9 4.3 0.00 0.00 0.00 69 1014.1
20260507023132 36 46 0.9 4.3 0.00 0.00 0.00 69 1014.1
20260507022133 36 46 0.9 4.3 0.00 0.00 0.00 69 1014.1
20260507021133 36 257 2.6 5.2 0.00 0.00 0.00 68 1014.0
20260507020135 36 257 2.6 5.2 0.00 0.00 0.00 68 1014.0
20260507015133 37 291 0.9 7.0 0.00 0.00 0.00 67 1013.9
20260507014134 37 291 0.9 7.0 0.00 0.00 0.00 67 1013.9
20260507013132 37 212 0.9 8.7 0.00 0.00 0.00 65 1013.8
20260507012132 37 212 0.9 8.7 0.00 0.00 0.00 65 1013.8
20260507011133 37 274 1.7 5.2 0.00 0.00 0.00 64 1013.7
20260507010133 37 274 1.7 5.2 0.00 0.00 0.00 64 1013.7
20260507004133 38 286 1.7 5.2 0.00 0.00 0.00 62 1013.8
20260507003134 38 264 1.7 7.0 0.00 0.00 0.00 61 1013.8
20260507002133 38 264 1.7 7.0 0.00 0.00 0.00 61 1013.8
20260507001133 38 217 1.7 7.8 0.00 0.00 0.00 59 1013.9
20260507000136 38 217 1.7 7.8 0.00 0.00 0.00 59 1013.9
20260506235134 38 219 1.7 7.8 0.00 0.00 0.00 59 1013.9
20260506234140 38 219 1.7 7.8 0.00 0.00 0.00 59 1013.9
20260506233133 39 33 0.0 6.1 0.00 0.00 0.00 58 1014.0
20260506232134 39 340 3.5 6.1 0.00 0.00 0.00 57 1013.9
20260506231134 39 340 3.5 6.1 0.00 0.00 0.00 57 1013.9
20260506224133 40 268 0.9 5.2 0.00 0.00 0.00 55 1013.7
20260506223135 40 268 0.9 5.2 0.00 0.00 0.00 55 1013.7
20260506222134 40 317 0.9 9.6 0.00 0.00 0.00 54 1013.7
20260506221135 40 317 0.9 9.6 0.00 0.00 0.00 54 1013.7
20260506220134 40 329 0.9 7.8 0.00 0.00 0.00 56 1013.8
20260506214135 40 221 2.6 7.8 0.00 0.00 0.00 55 1013.7
20260506213135 40 221 2.6 7.8 0.00 0.00 0.00 55 1013.7
20260506212134 40 351 1.7 7.0 0.00 0.00 0.00 56 1013.9
20260506211135 40 351 1.7 7.0 0.00 0.00 0.00 56 1013.9
20260506210134 40 323 4.3 7.8 0.00 0.00 0.00 54 1014.0
20260506205134 40 323 4.3 7.8 0.00 0.00 0.00 54 1014.0
20260506204135 40 319 5.2 7.8 0.00 0.00 0.00 54 1013.9
20260506203134 40 319 5.2 7.8 0.00 0.00 0.00 54 1013.9
20260506202134 40 246 2.6 9.6 0.00 0.00 0.00 54 1014.0
20260506201135 39 222 4.3 6.1 0.00 0.00 0.00 56 1014.1